{"data":{"norad_id":67962,"epoch":"2026-09-19T14:44:10.323168Z","epoch_age_seconds":139722,"freshness":"FRESH","line1":"1 67962U 26038B   26262.61400837  .00013597  00000+0  42274-3 0  9992","line2":"2 67962  97.2851 270.9052 0001300  95.9374 264.2017 15.33444328 32958","mean_motion":15.33444328,"eccentricity":0.00013,"inclination_deg":97.2851,"raan_deg":270.9052,"arg_perigee_deg":95.9374,"mean_anomaly_deg":264.2017,"bstar":0.00042274,"rev_number":3295,"period_min":93.906245809271,"perigee_km":464.65549519547,"apogee_km":466.43485256067,"semimajor_km":6843.6821738781,"source":"CELESTRAK","updated_at":"2026-09-20T09:00:43.713377Z"}}